User: anonymous   Login
Location: Balaclava NSW 2575, Australia
(34.4510°S, 150.4953°E)
Time: 12:52:37
(UTC+10:00)
Language:

XW-2A - Orbit

View from above orbital plane
View from above orbital plane
View from above satellite
View from above satellite

Ground track
Ground track

The orbit data is extracted from the following two-line orbital elements,

1 40903U 15049E   21216.48199235  .00003195  00000-0  67946-4 0  9992
2 40903  97.2326 270.8185 0011739 190.6398 294.7862 15.45674513330213
Epoch (UTC): 04 August 2021 11:34:04
Eccentricity: 0.0011739
inclination: 97.2326°
perigee height: 421 km
apogee height: 437 km
right ascension of ascending node: 270.8185°
argument of perigee: 190.6398°
revolutions per day: 15.45674513
mean anomaly at epoch: 294.7862°
orbit number at epoch: 33021

The dashed part of the orbit path shows where the satellite is in the earth's shadow,  

DLR